Simultaneous Nadir Overpasses (SNOs) Predictions

Prediction of SNOs between GOES-16 and FY3D Satellite Orbit:

Table of predicted SNOs for the next 14.0 days since TLE Epoch: 9/7/2024
Index Date Time (GOES-16) GOES-16 Lat,Lon FY3D Lat,Lon Distance(km) Time Diff (sec)
1 09/07/2024 07:45:44 0.05, -75.20 0.48, -77.09 215.04 80
2 09/08/2024 07:29:47 0.05, -75.20 -0.56, -72.58 300.01 80
3 09/09/2024 19:49:15 -0.04, -75.21 -0.63, -77.89 305.98 80
4 09/10/2024 19:33:18 -0.04, -75.21 0.36, -73.37 209.19 80
5 09/12/2024 07:52:36 0.03, -75.21 0.82, -78.65 391.98 80
6 09/13/2024 07:36:40 0.03, -75.22 -0.24, -74.14 123.33 80
7 09/14/2024 19:56:07 -0.02, -75.22 -0.98, -79.45 482.13 80
8 09/15/2024 19:40:10 -0.01, -75.23 0.04, -74.93 33.66 80
9 09/18/2024 07:40:49 0.01, -75.26 0.14, -75.68 49.76 80
10 09/19/2024 07:24:52 0.01, -75.27 -0.90, -71.17 466.95 80
11 09/20/2024 19:44:19 -0.01, -75.29 -0.27, -76.49 136.46 80
